Погода в Утхайтхани

Таиланд     15°22′08″N   100°02′28″E
темп.,
°C
ветер,
м/с
пор.,
м/с
влажн.,
%
обл.,
%
осадки,
мм/ч
давл.,
гПа
погр.,
м
13 мая, чт
чт1301:00+29ю512700 0.0 1004422
04:00+28ю49755 0.0 1004351
07:00+28ю36750 0.0 1006290
10:00+34ю335411 0.0 10071053
13:00+37ю334022 0.0 10042452
16:00+37ююз654087 0.1 10021841
19:00+28зюз247299 3.7 100372
22:00+28ююз367425 0.1 1005151
14 мая, пт
пт1401:00+27ю117798 0.1 100519
04:00+27ююв23815 0.0 100458
07:00+28ююз24770 0.0 1005195
10:00+33ююз33555 0.0 10071088
13:00+37юз334112 0.0 10042004
16:00+38ю133527 0.0 10011960
19:00+32ю495275 0.0 1003225
22:00+30ю496318 0.3 1005466
15 мая, сб
сб1501:00+29ю5107242 0.3 1005429
04:00+28ю497738 0.0 1004352
07:00+29ю37795 0.0 1006366
10:00+34ююз33545 0.0 10071098
13:00+37ююз33409 0.0 10042169
16:00+38ююв223914 0.1 10021239
19:00+32ю48565 0.1 1003254
22:00+31ю511585 0.0 1005407
16 мая, вс
вс1601:00+29ю51071100 0.0 1004380
04:00+28ю497559 0.0 1004314
07:00+29ю477621 0.0 1006338
10:00+34ююз44520 0.0 10071161
13:00+38ю324028 0.0 10042328
16:00+39ююв43335 0.0 10022659
19:00+30юз38615 0.0 1003245
22:00+30ю49625 0.1 1005269
17 мая, пн
пн1701:00+29ю4107240 0.1 1005339
04:00+28ю4107925 0.0 1004356
07:00+29ю48805 0.0 1006384
10:00+35ю45531 0.0 10071151
13:00+38ю434037 0.0 10052386
16:00+37юв554157 0.1 10021317
19:00+31зюз4762100 0.3 1004250
22:00+29ююз247421 1.3 100687